Preview of NWS' New Version of Forecast
This preview is not operational and should not be used for support decisions.

Regional Weather Roundup (RWR)

Issued by National Weather Service (NWS)

                            
000
ASUS45 KBOI 212010
RWRID 

IDAHO REGIONAL WEATHER ROUNDUP
NATIONAL WEATHER SERVICE BOISE ID
200 PM MDT SAT SEP 21 2019

NOTE: "FAIR" INDICATES FEW OR NO CLOUDS BELOW 12000 FEET
WITH NO SIGNIFICANT WEATHER AND/OR OBSTRUCTIONS TO VISIBILITY

IDZ012-014-212100-
SOUTHWEST IDAHO

  
CITY           SKY/WX    TMP DP  RH WIND       PRES   REMARKS
BOISE          SUNNY     65  44  46 W8        30.12F                  
CALDWELL       SUNNY     67  45  45 W8        30.12F                  
MOUNTAIN HOME  SUNNY     68  39  35 NW12G17   30.11F                  
$$

IDZ016-017-212100-
SOUTHCENTRAL IDAHO

  
CITY           SKY/WX    TMP DP  RH WIND       PRES   REMARKS
BURLEY         MOSUNNY   61  41  47 W8        30.14F                  
JEROME         SUNNY     62  41  46 W10G20    30.14F                  
TWIN FALLS     SUNNY     63  39  41 NW10      30.15F                  
$$

IDZ019>023-212100-
SOUTHEAST IDAHO

  
CITY           SKY/WX    TMP DP  RH WIND       PRES   REMARKS
IDAHO FALLS    CLOUDY    56  43  61 SW12      30.16F                  
POCATELLO      PTSUNNY   59  41  51 SW10G20   30.16F                  
REXBURG        CLOUDY    53  43  68 SW10      30.15F                  
$$

IDZ006-010-011-018-031-032-212100-
CENTRAL IDAHO MOUNTAINS

  
CITY           SKY/WX    TMP DP  RH WIND       PRES   REMARKS
MCCALL         MOSUNNY   58  37  45 CALM      30.13F                  
HAILEY         PTSUNNY   57  43  58 E8        30.14F                  
STANLEY          N/A     57  29  34 MISG      30.16F                  
SALMON         CLOUDY    58  44  60 N7        30.11F                  
CHALLIS        MOSUNNY   60  36  40 MISG      30.11F                  
$$

IDZ002-004-006-007-026-212100-
NORTHERN IDAHO

  
CITY           SKY/WX    TMP DP  RH WIND       PRES   REMARKS
LEWISTON       MOSUNNY   70  47  43 VRB6      30.08F                  
LOWELL           N/A     65  55  70 CALM      30.09F                  
COEUR D'ALENE  PTSUNNY   62  48  60 SE6       30.10F                  
MULLAN PASS    CLOUDY    46  41  82 VRB3      30.13F                  
$$